User: anonymous   Login
Location: Unspecified
(0.0000°N, 0.0000°E)
Time: 20:45:40
(UTC+00:00)
Language:

ASGARDIA 1 - Orbit

View from above orbital plane
View from above orbital plane
View from above satellite
View from above satellite

Ground track
Ground track

The orbit data is extracted from the following two-line orbital elements,

1 43049U 17071N   19291.26347080  .00002378  00000-0  64462-4 0  9994
2 43049  51.6385 177.6928 0001667 249.7184 110.3622 15.41951522104808
Epoch (UTC): 18 October 2019 06:19:23
Eccentricity: 0.0001667
inclination: 51.6385°
perigee height: 439 km
apogee height: 441 km
right ascension of ascending node: 177.6928°
argument of perigee: 249.7184°
revolutions per day: 15.41951522
mean anomaly at epoch: 110.3622°
orbit number at epoch: 10480

The dashed part of the orbit path shows where the satellite is in the earth's shadow,  

DLR